GTI330 OMDB-VABB

Flight info

Callsign GTI330
Flight time N/A
Altitude 37000
Route IVURO1F IVURO M677 LALDO B505 NADSO A777 VAXIM L301 KARKU M638 EXOLU POKON2A
Aircraft B48F/H-SDE1E2E3FGHIJ2J3J4J5M1RWXYZ/LB1D1

Departure

Time 2026-05-06 00:00
Airport Dubai International Airport (OMDB)

Arrival

Time N/A
Airport Chhatrapati Shivaji Maharaj International Airport (VABB)
Time Latitude Longitude Altitude Speed Heading
2026-05-05 23:28 25.25979 55.36608 30 ft 0 kts 31°
2026-05-05 23:47 25.25968 55.36601 29 ft 3 kts 31°
2026-05-05 23:48 25.25951 55.36589 29 ft 3 kts 47°
2026-05-05 23:48 25.25938 55.36569 27 ft 3 kts 72°
2026-05-05 23:48 25.25935 55.36546 27 ft 3 kts 98°
2026-05-05 23:48 25.25937 55.36531 29 ft 0 kts 114°
2026-05-05 23:52 25.25937 55.36532 31 ft 0 kts 114°
2026-05-05 23:53 25.25935 55.36536 31 ft 1 kts 116°
2026-05-05 23:53 25.25926 55.36553 31 ft 4 kts 120°
2026-05-05 23:53 25.25899 55.36601 31 ft 11 kts 122°
2026-05-05 23:53 25.25846 55.36693 31 ft 17 kts 123°
2026-05-05 23:54 25.25773 55.36824 32 ft 23 kts 121°
2026-05-05 23:54 25.25684 55.36990 33 ft 27 kts 120°
2026-05-05 23:54 25.25576 55.37179 34 ft 31 kts 123°
2026-05-05 23:54 25.25460 55.37393 36 ft 34 kts 120°
2026-05-05 23:55 25.25328 55.37629 37 ft 38 kts 121°
2026-05-05 23:55 25.25189 55.37884 39 ft 40 kts 121°
2026-05-05 23:55 25.25045 55.38140 40 ft 36 kts 122°
2026-05-05 23:55 25.24884 55.38268 44 ft 12 kts 195°
2026-05-05 23:56 25.24878 55.38263 45 ft 0 kts 219°
2026-05-05 23:56 25.24878 55.38262 45 ft 0 kts 225°
2026-05-05 23:56 25.24877 55.38260 45 ft 0 kts 231°
2026-05-05 23:56 25.24873 55.38253 45 ft 3 kts 238°
2026-05-05 23:57 25.24847 55.38207 46 ft 10 kts 235°
2026-05-05 23:57 25.24790 55.38148 43 ft 13 kts 225°
2026-05-05 23:57 25.24775 55.38081 45 ft 8 kts 281°
2026-05-05 23:57 25.24804 55.38019 41 ft 0 kts 304°
2026-05-05 23:59 25.24844 55.37949 43 ft 39 kts 301°
2026-05-05 23:59 25.25142 55.37413 46 ft 121 kts 302°
2026-05-05 23:59 25.25699 55.36413 37 ft 181 kts 302°
2026-05-06 00:00 25.26417 55.35153 463 ft 200 kts 304°
2026-05-06 00:00 25.27226 55.33835 1021 ft 218 kts 306°
2026-05-06 00:00 25.28134 55.32410 1555 ft 232 kts 306°
2026-05-06 00:00 25.29037 55.30938 2210 ft 230 kts 304°
2026-05-06 00:01 25.30200 55.29662 2232 ft 247 kts 334°
2026-05-06 00:01 25.31890 55.29237 2562 ft 252 kts
2026-05-06 00:01 25.33529 55.29475 3810 ft 239 kts
2026-05-06 00:01 25.35297 55.29655 4373 ft 263 kts
2026-05-06 00:02 25.37054 55.29674 5587 ft 251 kts
2026-05-06 00:02 25.38890 55.29791 6062 ft 277 kts 18°
2026-05-06 00:02 25.40547 55.30787 7042 ft 276 kts 41°
2026-05-06 00:02 25.41850 55.32364 7911 ft 281 kts 51°
2026-05-06 00:03 25.43041 55.34105 8815 ft 287 kts 53°
2026-05-06 00:03 25.44278 55.35868 9723 ft 292 kts 51°
2026-05-06 00:03 25.45580 55.37621 10567 ft 298 kts 50°
2026-05-06 00:03 25.46935 55.39441 11120 ft 316 kts 51°
2026-05-06 00:04 25.48340 55.41376 11849 ft 326 kts 53°
2026-05-06 00:04 25.49687 55.43426 12721 ft 332 kts 52°
2026-05-06 00:04 25.51154 55.45437 13607 ft 340 kts 51°
2026-05-06 00:04 25.52386 55.47723 14215 ft 351 kts 71°
2026-05-06 00:05 25.52397 55.53115 15792 ft 363 kts 111°
2026-05-06 00:05 25.51186 55.55576 16577 ft 369 kts 127°
2026-05-06 00:05 25.49572 55.57802 17348 ft 375 kts 130°
2026-05-06 00:06 25.47923 55.60000 18104 ft 381 kts 127°
2026-05-06 00:06 25.46399 55.62447 18804 ft 386 kts 121°
2026-05-06 00:06 25.45050 55.65042 19510 ft 392 kts 119°
2026-05-06 00:06 25.43663 55.67649 20217 ft 397 kts 122°
2026-05-06 00:07 25.42433 55.70414 20925 ft 402 kts 107°
2026-05-06 00:07 25.41683 55.73420 21596 ft 408 kts 103°
2026-05-06 00:07 25.41087 55.76509 22251 ft 413 kts 101°
2026-05-06 00:07 25.40486 55.79632 22934 ft 418 kts 103°
2026-05-06 00:08 25.39804 55.82735 23538 ft 424 kts 104°
2026-05-06 00:08 25.39076 55.85971 24089 ft 429 kts 103°
2026-05-06 00:08 25.38396 55.89175 24616 ft 434 kts 103°
2026-05-06 00:08 25.37720 55.92435 25129 ft 439 kts 103°
2026-05-06 00:09 25.37015 55.95730 25645 ft 443 kts 104°
2026-05-06 00:09 25.36289 55.99065 26150 ft 448 kts 104°
2026-05-06 00:09 25.35565 56.02434 26663 ft 453 kts 104°
2026-05-06 00:09 25.34839 56.05843 27163 ft 457 kts 104°
2026-05-06 00:10 25.34099 56.09294 27690 ft 462 kts 104°
2026-05-06 00:10 25.33349 56.12763 28193 ft 467 kts 104°
2026-05-06 00:10 25.32698 56.16284 28715 ft 471 kts 96°
2026-05-06 00:10 25.32377 56.19927 29228 ft 476 kts 95°
2026-05-06 00:11 25.32102 56.23600 29734 ft 481 kts 95°
2026-05-06 00:11 25.31811 56.27303 30177 ft 486 kts 96°
2026-05-06 00:11 25.31488 56.30991 30584 ft 490 kts 96°